Year,Month,Day,Hour,Minute,Value (Times are PST for temperature in C)
2007,10,30,00,00,5.50
2007,10,30,00,01,5.60
2007,10,30,00,02,5.70
2007,10,30,00,03,5.70
2007,10,30,00,04,5.70
2007,10,30,00,05,5.70
2007,10,30,00,06,5.80
2007,10,30,00,07,5.80
2007,10,30,00,08,5.80
2007,10,30,00,09,5.80
2007,10,30,00,10,5.80
2007,10,30,00,11,5.80
2007,10,30,00,12,5.80
2007,10,30,00,13,5.80
2007,10,30,00,14,5.80
2007,10,30,00,15,5.80
2007,10,30,00,16,5.80
2007,10,30,00,17,5.80
2007,10,30,00,18,5.80
2007,10,30,00,19,5.80
2007,10,30,00,20,5.80
2007,10,30,00,21,5.90
2007,10,30,00,22,5.90
2007,10,30,00,23,5.90
2007,10,30,00,24,5.90
2007,10,30,00,25,5.80
2007,10,30,00,26,5.80
2007,10,30,00,27,5.70
2007,10,30,00,28,5.70
2007,10,30,00,29,5.60
2007,10,30,00,30,5.50
2007,10,30,00,31,5.50
2007,10,30,00,32,5.30
2007,10,30,00,33,5.20
2007,10,30,00,34,5.10
2007,10,30,00,35,5.10
2007,10,30,00,36,5.10
2007,10,30,00,37,5.00
2007,10,30,00,38,4.90
2007,10,30,00,39,4.90
2007,10,30,00,40,4.90
2007,10,30,00,41,4.90
2007,10,30,00,42,4.80
2007,10,30,00,43,4.80
2007,10,30,00,44,4.80
2007,10,30,00,45,4.70
2007,10,30,00,46,4.70
2007,10,30,00,47,4.60
2007,10,30,00,48,4.60
2007,10,30,00,49,4.60
2007,10,30,00,50,4.60
2007,10,30,00,51,4.60
2007,10,30,00,52,4.60
2007,10,30,00,53,4.60
2007,10,30,00,54,4.60
2007,10,30,00,55,4.50
2007,10,30,00,56,4.50
2007,10,30,00,57,4.50
2007,10,30,00,58,4.50
2007,10,30,00,59,4.50
2007,10,30,01,00,4.50
2007,10,30,01,01,4.50
2007,10,30,01,02,4.50
2007,10,30,01,03,4.50
2007,10,30,01,04,4.50
2007,10,30,01,05,4.50
2007,10,30,01,06,4.50
2007,10,30,01,07,4.40
2007,10,30,01,08,4.40
2007,10,30,01,09,4.40
2007,10,30,01,10,4.30
2007,10,30,01,11,4.30
2007,10,30,01,12,4.30
2007,10,30,01,13,4.30
2007,10,30,01,14,4.30
2007,10,30,01,15,4.30
2007,10,30,01,16,4.30
2007,10,30,01,17,4.30
2007,10,30,01,18,4.30
2007,10,30,01,19,4.30
2007,10,30,01,20,4.30
2007,10,30,01,21,4.30
2007,10,30,01,22,4.30
2007,10,30,01,23,4.30
2007,10,30,01,24,4.30
2007,10,30,01,25,4.30
2007,10,30,01,26,4.30
2007,10,30,01,27,4.40
2007,10,30,01,28,4.40
2007,10,30,01,29,4.40
2007,10,30,01,30,4.50
2007,10,30,01,31,4.50
2007,10,30,01,32,4.60
2007,10,30,01,33,4.60
2007,10,30,01,34,4.70
2007,10,30,01,35,4.70
2007,10,30,01,36,4.70
2007,10,30,01,37,4.80
2007,10,30,01,38,4.80
2007,10,30,01,39,4.80
2007,10,30,01,40,4.80
2007,10,30,01,41,4.80
2007,10,30,01,42,4.90
2007,10,30,01,43,4.90
2007,10,30,01,44,4.90
2007,10,30,01,45,4.90
2007,10,30,01,46,4.90
2007,10,30,01,47,4.90
2007,10,30,01,48,4.90
2007,10,30,01,49,4.90
2007,10,30,01,50,4.90
2007,10,30,01,51,4.90
2007,10,30,01,52,4.90
2007,10,30,01,53,4.90
2007,10,30,01,54,4.90
2007,10,30,01,55,4.90
2007,10,30,01,56,4.90
2007,10,30,01,57,4.90
2007,10,30,01,58,4.90
2007,10,30,01,59,5.00
2007,10,30,02,00,5.00
2007,10,30,02,01,5.00
2007,10,30,02,02,5.00
2007,10,30,02,03,5.00
2007,10,30,02,04,5.10
2007,10,30,02,05,5.10
2007,10,30,02,06,5.10
2007,10,30,02,07,5.10
2007,10,30,02,08,5.10
2007,10,30,02,09,5.10
2007,10,30,02,10,5.10
2007,10,30,02,11,5.10
2007,10,30,02,12,5.10
2007,10,30,02,13,5.10
2007,10,30,02,14,5.10
2007,10,30,02,15,5.10
2007,10,30,02,16,5.10
2007,10,30,02,17,5.20
2007,10,30,02,18,5.20
2007,10,30,02,19,5.20
2007,10,30,02,20,5.20
2007,10,30,02,21,5.20
2007,10,30,02,22,5.20
2007,10,30,02,23,5.20
2007,10,30,02,24,5.20
2007,10,30,02,25,5.20
2007,10,30,02,26,5.30
2007,10,30,02,27,5.30
2007,10,30,02,28,5.30
2007,10,30,02,29,5.30
2007,10,30,02,30,5.20
2007,10,30,02,31,5.20
2007,10,30,02,32,5.20
2007,10,30,02,33,5.20
2007,10,30,02,34,5.20
2007,10,30,02,35,5.20
2007,10,30,02,36,5.20
2007,10,30,02,37,5.20
2007,10,30,02,38,5.20
2007,10,30,02,39,5.20
2007,10,30,02,40,5.20
2007,10,30,02,41,5.20
2007,10,30,02,42,5.20
2007,10,30,02,43,5.20
2007,10,30,02,44,5.10
2007,10,30,02,45,5.10
2007,10,30,02,46,5.10
2007,10,30,02,47,5.10
2007,10,30,02,48,5.10
2007,10,30,02,49,5.10
2007,10,30,02,50,5.10
2007,10,30,02,51,5.10
2007,10,30,02,52,5.10
2007,10,30,02,53,5.10
2007,10,30,02,54,5.10
2007,10,30,02,55,5.10
2007,10,30,02,56,5.10
2007,10,30,02,57,5.10
2007,10,30,02,58,5.10
2007,10,30,02,59,5.10
2007,10,30,03,00,5.10
2007,10,30,03,01,5.10
2007,10,30,03,02,5.10
2007,10,30,03,03,5.10
2007,10,30,03,04,5.10
2007,10,30,03,05,5.10
2007,10,30,03,06,5.10
2007,10,30,03,07,5.10
2007,10,30,03,08,5.10
2007,10,30,03,09,5.10
2007,10,30,03,10,5.00
2007,10,30,03,11,5.10
2007,10,30,03,12,5.10
2007,10,30,03,13,5.10
2007,10,30,03,14,5.10
2007,10,30,03,15,5.10
2007,10,30,03,16,5.10
2007,10,30,03,17,5.10
2007,10,30,03,18,5.10
2007,10,30,03,19,5.10
2007,10,30,03,20,5.10
2007,10,30,03,21,5.10
2007,10,30,03,22,5.10
2007,10,30,03,23,5.10
2007,10,30,03,24,5.20
2007,10,30,03,25,5.20
2007,10,30,03,26,5.20
2007,10,30,03,27,5.20
2007,10,30,03,28,5.20
2007,10,30,03,29,5.20
2007,10,30,03,30,5.20
2007,10,30,03,31,5.20
2007,10,30,03,32,5.20
2007,10,30,03,33,5.20
2007,10,30,03,34,5.20
2007,10,30,03,35,5.20
2007,10,30,03,36,5.20
2007,10,30,03,37,5.20
2007,10,30,03,38,5.20
2007,10,30,03,39,5.20
2007,10,30,03,40,5.20
2007,10,30,03,41,5.20
2007,10,30,03,42,5.20
2007,10,30,03,43,5.20
2007,10,30,03,44,5.20
2007,10,30,03,45,5.20
2007,10,30,03,46,5.20
2007,10,30,03,47,5.20
2007,10,30,03,48,5.20
2007,10,30,03,49,5.20
2007,10,30,03,50,5.20
2007,10,30,03,51,5.20
2007,10,30,03,52,5.20
2007,10,30,03,53,5.10
2007,10,30,03,54,5.10
2007,10,30,03,55,5.10
2007,10,30,03,56,5.10
2007,10,30,03,57,5.10
2007,10,30,03,58,5.10
2007,10,30,03,59,5.10
2007,10,30,04,00,5.10
2007,10,30,04,01,5.10
2007,10,30,04,02,5.00
2007,10,30,04,03,5.00
2007,10,30,04,04,5.00
2007,10,30,04,05,5.00
2007,10,30,04,06,5.00
2007,10,30,04,07,5.00
2007,10,30,04,08,5.10
2007,10,30,04,09,5.10
2007,10,30,04,10,5.10
2007,10,30,04,11,5.10
2007,10,30,04,12,5.10
2007,10,30,04,13,5.10
2007,10,30,04,14,5.10
2007,10,30,04,15,5.10
2007,10,30,04,16,5.10
2007,10,30,04,17,5.10
2007,10,30,04,18,5.10
2007,10,30,04,19,5.10
2007,10,30,04,20,5.10
2007,10,30,04,21,5.10
2007,10,30,04,22,5.10
2007,10,30,04,23,5.10
2007,10,30,04,24,5.10
2007,10,30,04,25,5.10
2007,10,30,04,26,5.10
2007,10,30,04,27,5.00
2007,10,30,04,28,5.00
2007,10,30,04,29,5.00
2007,10,30,04,30,5.00
2007,10,30,04,31,5.00
2007,10,30,04,32,4.90
2007,10,30,04,33,4.90
2007,10,30,04,34,4.90
2007,10,30,04,35,4.90
2007,10,30,04,36,4.90
2007,10,30,04,37,4.90
2007,10,30,04,38,4.90
2007,10,30,04,39,4.90
2007,10,30,04,40,4.90
2007,10,30,04,41,4.80
2007,10,30,04,42,4.80
2007,10,30,04,43,4.80
2007,10,30,04,44,4.80
2007,10,30,04,45,4.70
2007,10,30,04,46,4.70
2007,10,30,04,47,4.70
2007,10,30,04,48,4.70
2007,10,30,04,49,4.70
2007,10,30,04,50,4.70
2007,10,30,04,51,4.70
2007,10,30,04,52,4.70
2007,10,30,04,53,4.80
2007,10,30,04,54,4.80
2007,10,30,04,55,4.80
2007,10,30,04,56,4.80
2007,10,30,04,57,4.70
2007,10,30,04,58,4.70
2007,10,30,04,59,4.60
2007,10,30,05,00,4.50
2007,10,30,05,01,4.40
2007,10,30,05,02,4.40
2007,10,30,05,03,4.30
2007,10,30,05,04,4.30
2007,10,30,05,05,4.20
2007,10,30,05,06,4.10
2007,10,30,05,07,4.10
2007,10,30,05,08,4.10
2007,10,30,05,09,4.00
2007,10,30,05,10,4.00
2007,10,30,05,11,4.00
2007,10,30,05,12,3.90
2007,10,30,05,13,3.90
2007,10,30,05,14,3.90
2007,10,30,05,15,3.90
2007,10,30,05,16,3.90
2007,10,30,05,17,3.80
2007,10,30,05,18,3.80
2007,10,30,05,19,3.80
2007,10,30,05,20,3.70
2007,10,30,05,21,3.70
2007,10,30,05,22,3.70
2007,10,30,05,23,3.70
2007,10,30,05,24,3.60
2007,10,30,05,25,3.60
2007,10,30,05,26,3.60
2007,10,30,05,27,3.50
2007,10,30,05,28,3.50
2007,10,30,05,29,3.50
2007,10,30,05,30,3.40
2007,10,30,05,31,3.40
2007,10,30,05,32,3.40
2007,10,30,05,33,3.40
2007,10,30,05,34,3.40
2007,10,30,05,35,3.40
2007,10,30,05,36,3.40
2007,10,30,05,37,3.40
2007,10,30,05,38,3.40
2007,10,30,05,39,3.40
2007,10,30,05,40,3.40
2007,10,30,05,41,3.40
2007,10,30,05,42,3.40
2007,10,30,05,43,3.40
2007,10,30,05,44,3.50
2007,10,30,05,45,3.50
2007,10,30,05,46,3.50
2007,10,30,05,47,3.50
2007,10,30,05,48,3.50
2007,10,30,05,49,3.50
2007,10,30,05,50,3.50
2007,10,30,05,51,3.50
2007,10,30,05,52,3.40
2007,10,30,05,53,3.40
2007,10,30,05,54,3.40
2007,10,30,05,55,3.40
2007,10,30,05,56,3.40
2007,10,30,05,57,3.40
2007,10,30,05,58,3.40
2007,10,30,05,59,3.40
2007,10,30,06,00,3.30
2007,10,30,06,01,3.30
2007,10,30,06,02,3.30
2007,10,30,06,03,3.30
2007,10,30,06,04,3.30
2007,10,30,06,05,3.30
2007,10,30,06,06,3.30
2007,10,30,06,07,3.30
2007,10,30,06,08,3.30
2007,10,30,06,09,3.30
2007,10,30,06,10,3.30
2007,10,30,06,11,3.30
2007,10,30,06,12,3.30
2007,10,30,06,13,3.30
2007,10,30,06,14,3.20
2007,10,30,06,15,3.10
2007,10,30,06,16,3.10
2007,10,30,06,17,3.00
2007,10,30,06,18,2.90
2007,10,30,06,19,2.80
2007,10,30,06,20,2.80
2007,10,30,06,21,2.70
2007,10,30,06,22,2.70
2007,10,30,06,23,2.70
2007,10,30,06,24,2.60
2007,10,30,06,25,2.60
2007,10,30,06,26,2.60
2007,10,30,06,27,2.60
2007,10,30,06,28,2.50
2007,10,30,06,29,2.50
2007,10,30,06,30,2.50
2007,10,30,06,31,2.40
2007,10,30,06,32,2.40
2007,10,30,06,33,2.40
2007,10,30,06,34,2.40
2007,10,30,06,35,2.40
2007,10,30,06,36,2.40
2007,10,30,06,37,2.40
2007,10,30,06,38,2.40
2007,10,30,06,39,2.40
2007,10,30,06,40,2.40
2007,10,30,06,41,2.40
2007,10,30,06,42,2.40
2007,10,30,06,43,2.40
2007,10,30,06,44,2.40
2007,10,30,06,45,2.40
2007,10,30,06,46,2.40
2007,10,30,06,47,2.30
2007,10,30,06,48,2.30
2007,10,30,06,49,2.30
2007,10,30,06,50,2.30
2007,10,30,06,51,2.30
2007,10,30,06,52,2.30
2007,10,30,06,53,2.30
2007,10,30,06,54,2.20
2007,10,30,06,55,2.20
2007,10,30,06,56,2.20
2007,10,30,06,57,2.10
2007,10,30,06,58,2.10
2007,10,30,06,59,2.10
2007,10,30,07,00,2.10
2007,10,30,07,01,2.10
2007,10,30,07,02,2.00
2007,10,30,07,03,2.00
2007,10,30,07,04,2.00
2007,10,30,07,05,2.10
2007,10,30,07,06,2.10
2007,10,30,07,07,2.00
2007,10,30,07,08,2.00
2007,10,30,07,09,2.00
2007,10,30,07,10,2.00
2007,10,30,07,11,1.90
2007,10,30,07,12,1.90
2007,10,30,07,13,1.90
2007,10,30,07,14,1.90
2007,10,30,07,15,1.90
2007,10,30,07,16,1.90
2007,10,30,07,17,1.90
2007,10,30,07,18,1.90
2007,10,30,07,19,1.90
2007,10,30,07,20,1.90
2007,10,30,07,21,1.90
2007,10,30,07,22,1.90
2007,10,30,07,23,1.90
2007,10,30,07,24,1.90
2007,10,30,07,25,1.90
2007,10,30,07,26,1.90
2007,10,30,07,27,1.90
2007,10,30,07,28,1.90
2007,10,30,07,29,1.90
2007,10,30,07,30,1.90
2007,10,30,07,31,1.90
2007,10,30,07,32,1.90
2007,10,30,07,33,1.90
2007,10,30,07,34,1.90
2007,10,30,07,35,1.90
2007,10,30,07,36,1.90
2007,10,30,07,37,1.90
2007,10,30,07,38,1.90
2007,10,30,07,39,1.90
2007,10,30,07,40,1.90
2007,10,30,07,41,1.90
2007,10,30,07,42,1.90
2007,10,30,07,43,1.90
2007,10,30,07,44,1.90
2007,10,30,07,45,1.90
2007,10,30,07,46,1.90
2007,10,30,07,47,1.90
2007,10,30,07,48,1.90
2007,10,30,07,49,1.90
2007,10,30,07,50,1.90
2007,10,30,07,51,1.80
2007,10,30,07,52,1.80
2007,10,30,07,53,1.70
2007,10,30,07,54,1.70
2007,10,30,07,55,1.70
2007,10,30,07,56,1.60
2007,10,30,07,57,1.60
2007,10,30,07,58,1.60
2007,10,30,07,59,1.60
2007,10,30,08,00,1.50
2007,10,30,08,01,1.50
2007,10,30,08,02,1.50
2007,10,30,08,03,1.50
2007,10,30,08,04,1.50
2007,10,30,08,05,1.50
2007,10,30,08,06,1.60
2007,10,30,08,07,1.60
2007,10,30,08,08,1.60
2007,10,30,08,09,1.60
2007,10,30,08,10,1.60
2007,10,30,08,11,1.70
2007,10,30,08,12,1.70
2007,10,30,08,13,1.70
2007,10,30,08,14,1.70
2007,10,30,08,15,1.70
2007,10,30,08,16,1.70
2007,10,30,08,17,1.70
2007,10,30,08,18,1.70
2007,10,30,08,19,1.70
2007,10,30,08,20,1.70
2007,10,30,08,21,1.70
2007,10,30,08,22,1.70
2007,10,30,08,23,1.70
2007,10,30,08,24,1.70
2007,10,30,08,25,1.70
2007,10,30,08,26,1.70
2007,10,30,08,27,1.70
2007,10,30,08,28,1.70
2007,10,30,08,29,1.70
2007,10,30,08,30,1.70
2007,10,30,08,31,1.70
2007,10,30,08,32,1.70
2007,10,30,08,33,1.70
2007,10,30,08,34,1.70
2007,10,30,08,35,1.70
2007,10,30,08,36,1.80
2007,10,30,08,37,1.80
2007,10,30,08,38,1.80
2007,10,30,08,39,1.90
2007,10,30,08,40,1.90
2007,10,30,08,41,2.00
2007,10,30,08,42,2.00
2007,10,30,08,43,2.10
2007,10,30,08,44,2.20
2007,10,30,08,45,2.20
2007,10,30,08,46,2.30
2007,10,30,08,47,2.30
2007,10,30,08,48,2.40
2007,10,30,08,49,2.40
2007,10,30,08,50,2.40
2007,10,30,08,51,2.50
2007,10,30,08,52,2.50
2007,10,30,08,53,2.60
2007,10,30,08,54,2.60
2007,10,30,08,55,2.60
2007,10,30,08,56,2.70
2007,10,30,08,57,2.70
2007,10,30,08,58,2.70
2007,10,30,08,59,2.80
2007,10,30,09,00,2.80
2007,10,30,09,01,2.90
2007,10,30,09,02,2.90
2007,10,30,09,03,2.90
2007,10,30,09,04,2.90
2007,10,30,09,05,2.90
2007,10,30,09,06,2.90
2007,10,30,09,07,2.90
2007,10,30,09,08,2.90
2007,10,30,09,09,3.00
2007,10,30,09,10,3.00
2007,10,30,09,11,3.10
2007,10,30,09,12,3.20
2007,10,30,09,13,3.20
2007,10,30,09,14,3.30
2007,10,30,09,15,3.40
2007,10,30,09,16,3.50
2007,10,30,09,17,3.60
2007,10,30,09,18,3.60
2007,10,30,09,19,3.70
2007,10,30,09,20,3.70
2007,10,30,09,21,3.70
2007,10,30,09,22,3.70
2007,10,30,09,23,3.70
2007,10,30,09,24,3.80
2007,10,30,09,25,3.80
2007,10,30,09,26,3.90
2007,10,30,09,27,3.90
2007,10,30,09,28,4.00
2007,10,30,09,29,4.00
2007,10,30,09,30,4.10
2007,10,30,09,31,4.10
2007,10,30,09,32,4.20
2007,10,30,09,33,4.30
2007,10,30,09,34,4.40
2007,10,30,09,35,4.50
2007,10,30,09,36,4.60
2007,10,30,09,37,4.70
2007,10,30,09,38,4.80
2007,10,30,09,39,4.90
2007,10,30,09,40,5.00
2007,10,30,09,41,5.10
2007,10,30,09,42,5.20
2007,10,30,09,43,5.30
2007,10,30,09,44,5.40
2007,10,30,09,45,5.40
2007,10,30,09,46,5.50
2007,10,30,09,47,5.50
2007,10,30,09,48,5.60
2007,10,30,09,49,5.50
2007,10,30,09,50,5.50
2007,10,30,09,51,5.50
2007,10,30,09,52,5.50
2007,10,30,09,53,5.40
2007,10,30,09,54,5.40
2007,10,30,09,55,5.40
2007,10,30,09,56,5.40
2007,10,30,09,57,5.50
2007,10,30,09,58,5.50
2007,10,30,09,59,5.60
2007,10,30,10,00,5.70
2007,10,30,10,01,5.80
2007,10,30,10,02,5.90
2007,10,30,10,03,5.90
2007,10,30,10,04,6.00
2007,10,30,10,05,6.10
2007,10,30,10,06,6.20
2007,10,30,10,07,6.30
2007,10,30,10,08,6.40
2007,10,30,10,09,6.50
2007,10,30,10,10,6.60
2007,10,30,10,11,6.70
2007,10,30,10,12,6.70
2007,10,30,10,13,6.70
2007,10,30,10,14,6.80
2007,10,30,10,15,6.90
2007,10,30,10,16,6.90
2007,10,30,10,17,7.00
2007,10,30,10,18,7.10
2007,10,30,10,19,7.10
2007,10,30,10,20,7.20
2007,10,30,10,21,7.20
2007,10,30,10,22,7.20
2007,10,30,10,23,7.20
2007,10,30,10,24,7.20
2007,10,30,10,25,7.20
2007,10,30,10,26,7.20
2007,10,30,10,27,7.20
2007,10,30,10,28,7.20
2007,10,30,10,29,7.20
2007,10,30,10,30,7.20
2007,10,30,10,31,7.20
2007,10,30,10,32,7.20
2007,10,30,10,33,7.30
2007,10,30,10,34,7.30
2007,10,30,10,35,7.40
2007,10,30,10,36,7.50
2007,10,30,10,37,7.50
2007,10,30,10,38,7.60
2007,10,30,10,39,7.60
2007,10,30,10,40,7.60
2007,10,30,10,41,7.70
2007,10,30,10,42,7.70
2007,10,30,10,43,7.70
2007,10,30,10,44,7.60
2007,10,30,10,45,7.60
2007,10,30,10,46,7.60
2007,10,30,10,47,7.60
2007,10,30,10,48,7.50
2007,10,30,10,49,7.50
2007,10,30,10,50,7.50
2007,10,30,10,51,7.60
2007,10,30,10,52,7.70
2007,10,30,10,53,7.70
2007,10,30,10,54,7.80
2007,10,30,10,55,7.90
2007,10,30,10,56,7.90
2007,10,30,10,57,8.00
2007,10,30,10,58,8.00
2007,10,30,10,59,8.10
2007,10,30,11,00,8.10
2007,10,30,11,01,8.20
2007,10,30,11,02,8.20
2007,10,30,11,03,8.30
2007,10,30,11,04,8.30
2007,10,30,11,05,8.40
2007,10,30,11,06,8.30
2007,10,30,11,07,8.20
2007,10,30,11,08,8.20
2007,10,30,11,09,8.10
2007,10,30,11,10,8.00
2007,10,30,11,11,7.90
2007,10,30,11,12,7.80
2007,10,30,11,13,7.80
2007,10,30,11,14,7.80
2007,10,30,11,15,7.70
2007,10,30,11,16,7.70
2007,10,30,11,17,7.70
2007,10,30,11,18,7.60
2007,10,30,11,19,7.60
2007,10,30,11,20,7.60
2007,10,30,11,21,7.50
2007,10,30,11,22,7.50
2007,10,30,11,23,7.50
2007,10,30,11,24,7.50
2007,10,30,11,25,7.50
2007,10,30,11,26,7.60
2007,10,30,11,27,7.60
2007,10,30,11,28,7.70
2007,10,30,11,29,7.80
2007,10,30,11,30,7.90
2007,10,30,11,31,8.00
2007,10,30,11,32,8.10
2007,10,30,11,33,8.10
2007,10,30,11,34,8.10
2007,10,30,11,35,8.00
2007,10,30,11,36,8.00
2007,10,30,11,37,8.00
2007,10,30,11,38,8.00
2007,10,30,11,39,8.00
2007,10,30,11,40,8.00
2007,10,30,11,41,8.00
2007,10,30,11,42,8.10
2007,10,30,11,43,8.10
2007,10,30,11,44,8.10
2007,10,30,11,45,8.10
2007,10,30,11,46,8.10
2007,10,30,11,47,8.10
2007,10,30,11,48,8.10
2007,10,30,11,49,8.10
2007,10,30,11,50,8.00
2007,10,30,11,51,7.90
2007,10,30,11,52,7.80
2007,10,30,11,53,7.80
2007,10,30,11,54,7.70
2007,10,30,11,55,7.70
2007,10,30,11,56,7.60
2007,10,30,11,57,7.60
2007,10,30,11,58,7.60
2007,10,30,11,59,7.60
2007,10,30,12,00,7.70
2007,10,30,12,01,7.70
2007,10,30,12,02,7.70
2007,10,30,12,03,7.80
2007,10,30,12,04,7.80
2007,10,30,12,05,7.90
2007,10,30,12,06,8.00
2007,10,30,12,07,8.00
2007,10,30,12,08,8.00
2007,10,30,12,09,8.00
2007,10,30,12,10,8.00
2007,10,30,12,11,7.90
2007,10,30,12,12,7.90
2007,10,30,12,13,7.80
2007,10,30,12,14,7.80
2007,10,30,12,15,7.80
2007,10,30,12,16,7.80
2007,10,30,12,17,7.80
2007,10,30,12,18,7.80
2007,10,30,12,19,7.70
2007,10,30,12,20,7.70
2007,10,30,12,21,7.70
2007,10,30,12,22,7.70
2007,10,30,12,23,7.70
2007,10,30,12,24,7.70
2007,10,30,12,25,7.70
2007,10,30,12,26,7.70
2007,10,30,12,27,7.70
2007,10,30,12,28,7.70
2007,10,30,12,29,7.70
2007,10,30,12,30,7.60
2007,10,30,12,31,7.60
2007,10,30,12,32,7.60
2007,10,30,12,33,7.60
2007,10,30,12,34,7.60
2007,10,30,12,35,7.60
2007,10,30,12,36,7.60
2007,10,30,12,37,7.60
2007,10,30,12,38,7.60
2007,10,30,12,39,7.60
2007,10,30,12,40,7.60
2007,10,30,12,41,7.50
2007,10,30,12,42,7.50
2007,10,30,12,43,7.50
2007,10,30,12,44,7.50
2007,10,30,12,45,7.50
2007,10,30,12,46,7.50
2007,10,30,12,47,7.50
2007,10,30,12,48,7.50
2007,10,30,12,49,7.50
2007,10,30,12,50,7.60
2007,10,30,12,51,7.60
2007,10,30,12,52,7.60
2007,10,30,12,53,7.70
2007,10,30,12,54,7.70
2007,10,30,12,55,7.70
2007,10,30,12,56,7.60
2007,10,30,12,57,7.60
2007,10,30,12,58,7.60
2007,10,30,12,59,7.60
2007,10,30,13,00,7.60
2007,10,30,13,01,7.60
2007,10,30,13,02,7.60
2007,10,30,13,03,7.60
2007,10,30,13,04,7.60
2007,10,30,13,05,7.70
2007,10,30,13,06,7.70
2007,10,30,13,07,7.70
2007,10,30,13,08,7.70
2007,10,30,13,09,7.70
2007,10,30,13,10,7.80
2007,10,30,13,11,7.80
2007,10,30,13,12,7.90
2007,10,30,13,13,7.90
2007,10,30,13,14,8.00
2007,10,30,13,15,8.00
2007,10,30,13,16,8.10
2007,10,30,13,17,8.10
2007,10,30,13,18,8.10
2007,10,30,13,19,8.20
2007,10,30,13,20,8.20
2007,10,30,13,21,8.30
2007,10,30,13,22,8.20
2007,10,30,13,23,8.10
2007,10,30,13,24,8.10
2007,10,30,13,25,8.00
2007,10,30,13,26,8.00
2007,10,30,13,27,8.00
2007,10,30,13,28,7.90
2007,10,30,13,29,7.90
2007,10,30,13,30,7.90
2007,10,30,13,31,7.80
2007,10,30,13,32,7.80
2007,10,30,13,33,7.80
2007,10,30,13,34,7.80
2007,10,30,13,35,7.90
2007,10,30,13,36,7.90
2007,10,30,13,37,7.90
2007,10,30,13,38,7.90
2007,10,30,13,39,7.90
2007,10,30,13,40,8.00
2007,10,30,13,41,8.00
2007,10,30,13,42,8.10
2007,10,30,13,43,8.10
2007,10,30,13,44,8.10
2007,10,30,13,45,8.20
2007,10,30,13,46,8.40
2007,10,30,13,47,8.50
2007,10,30,13,48,8.60
2007,10,30,13,49,8.70
2007,10,30,13,50,8.70
2007,10,30,13,51,8.60
2007,10,30,13,52,8.50
2007,10,30,13,53,8.50
2007,10,30,13,54,8.40
2007,10,30,13,55,8.30
2007,10,30,13,56,8.20
2007,10,30,13,57,8.10
2007,10,30,13,58,8.00
2007,10,30,13,59,7.90
2007,10,30,14,00,7.90
2007,10,30,14,01,7.90
2007,10,30,14,02,7.90
2007,10,30,14,03,7.90
2007,10,30,14,04,7.90
2007,10,30,14,05,8.00
2007,10,30,14,06,8.00
2007,10,30,14,07,8.00
2007,10,30,14,08,8.10
2007,10,30,14,09,8.10
2007,10,30,14,10,8.10
2007,10,30,14,11,8.10
2007,10,30,14,12,8.20
2007,10,30,14,13,8.20
2007,10,30,14,14,8.20
2007,10,30,14,15,8.20
2007,10,30,14,16,8.30
2007,10,30,14,17,8.30
2007,10,30,14,18,8.40
2007,10,30,14,19,8.40
2007,10,30,14,20,8.40
2007,10,30,14,21,8.50
2007,10,30,14,22,8.60
2007,10,30,14,23,8.60
2007,10,30,14,24,8.70
2007,10,30,14,25,8.70
2007,10,30,14,26,8.70
2007,10,30,14,27,8.60
2007,10,30,14,28,8.60
2007,10,30,14,29,8.60
2007,10,30,14,30,8.60
2007,10,30,14,31,8.60
2007,10,30,14,32,8.70
2007,10,30,14,33,8.60
2007,10,30,14,34,8.60
2007,10,30,14,35,8.60
2007,10,30,14,36,8.50
2007,10,30,14,37,8.50
2007,10,30,14,38,8.40
2007,10,30,14,39,8.40
2007,10,30,14,40,8.40
2007,10,30,14,41,8.50
2007,10,30,14,42,8.50
2007,10,30,14,43,8.60
2007,10,30,14,44,8.60
2007,10,30,14,45,8.70
2007,10,30,14,46,8.80
2007,10,30,14,47,8.80
2007,10,30,14,48,8.80
2007,10,30,14,49,8.80
2007,10,30,14,50,8.80
2007,10,30,14,51,8.80
2007,10,30,14,52,8.70
2007,10,30,14,53,8.80
2007,10,30,14,54,8.80
2007,10,30,14,55,8.80
2007,10,30,14,56,8.90
2007,10,30,14,57,8.80
2007,10,30,14,58,8.80
2007,10,30,14,59,8.80
2007,10,30,15,00,8.80
2007,10,30,15,01,8.80
2007,10,30,15,02,8.80
2007,10,30,15,03,8.80
2007,10,30,15,04,8.80
2007,10,30,15,05,8.70
2007,10,30,15,06,8.70
2007,10,30,15,07,8.70
2007,10,30,15,08,8.70
2007,10,30,15,09,8.70
2007,10,30,15,10,8.70
2007,10,30,15,11,8.70
2007,10,30,15,12,8.70
2007,10,30,15,13,8.70
2007,10,30,15,14,8.70
2007,10,30,15,15,8.80
2007,10,30,15,16,8.70
2007,10,30,15,17,8.70
2007,10,30,15,18,8.70
2007,10,30,15,19,8.70
2007,10,30,15,20,8.70
2007,10,30,15,21,8.70
2007,10,30,15,22,8.60
2007,10,30,15,23,8.60
2007,10,30,15,24,8.60
2007,10,30,15,25,8.60
2007,10,30,15,26,8.60
2007,10,30,15,27,8.60
2007,10,30,15,28,8.60
2007,10,30,15,29,8.70
2007,10,30,15,30,8.70
2007,10,30,15,31,8.70
2007,10,30,15,32,8.60
2007,10,30,15,33,8.60
2007,10,30,15,34,8.60
2007,10,30,15,35,8.60
2007,10,30,15,36,8.60
2007,10,30,15,37,8.60
2007,10,30,15,38,8.60
2007,10,30,15,39,8.60
2007,10,30,15,40,8.60
2007,10,30,15,41,8.60
2007,10,30,15,42,8.70
2007,10,30,15,43,8.60
2007,10,30,15,44,8.60
2007,10,30,15,45,8.50
2007,10,30,15,46,8.50
2007,10,30,15,47,8.40
2007,10,30,15,48,8.40
2007,10,30,15,49,8.40
2007,10,30,15,50,8.40
2007,10,30,15,51,8.40
2007,10,30,15,52,8.40
2007,10,30,15,53,8.40
2007,10,30,15,54,8.40
2007,10,30,15,55,8.50
2007,10,30,15,56,8.50
2007,10,30,15,57,8.50
2007,10,30,15,58,8.40
2007,10,30,15,59,8.40
2007,10,30,16,00,8.40
2007,10,30,16,01,8.40
2007,10,30,16,02,8.40
2007,10,30,16,03,8.40
2007,10,30,16,04,8.40
2007,10,30,16,05,8.40
2007,10,30,16,06,8.40
2007,10,30,16,07,8.30
2007,10,30,16,08,8.30
2007,10,30,16,09,8.30
2007,10,30,16,10,8.30
2007,10,30,16,11,8.20
2007,10,30,16,12,8.20
2007,10,30,16,13,8.20
2007,10,30,16,14,8.20
2007,10,30,16,15,8.20
2007,10,30,16,16,8.20
2007,10,30,16,17,8.20
2007,10,30,16,18,8.20
2007,10,30,16,19,8.20
2007,10,30,16,20,8.20
2007,10,30,16,21,8.10
2007,10,30,16,22,8.10
2007,10,30,16,23,8.10
2007,10,30,16,24,8.10
2007,10,30,16,25,8.10
2007,10,30,16,26,8.00
2007,10,30,16,27,8.00
2007,10,30,16,28,7.90
2007,10,30,16,29,7.90
2007,10,30,16,30,7.90
2007,10,30,16,31,7.90
2007,10,30,16,32,7.80
2007,10,30,16,33,7.80
2007,10,30,16,34,7.80
2007,10,30,16,35,7.70
2007,10,30,16,36,7.70
2007,10,30,16,37,7.70
2007,10,30,16,38,7.70
2007,10,30,16,39,7.70
2007,10,30,16,40,7.70
2007,10,30,16,41,7.70
2007,10,30,16,42,7.70
2007,10,30,16,43,7.70
2007,10,30,16,44,7.70
2007,10,30,16,45,7.70
2007,10,30,16,46,7.70
2007,10,30,16,47,7.70
2007,10,30,16,48,7.70
2007,10,30,16,49,7.70
2007,10,30,16,50,7.70
2007,10,30,16,51,7.70
2007,10,30,16,52,7.70
2007,10,30,16,53,7.70
2007,10,30,16,54,7.70
2007,10,30,16,55,7.70
2007,10,30,16,56,7.70
2007,10,30,16,57,7.70
2007,10,30,16,58,7.70
2007,10,30,16,59,7.70
2007,10,30,17,00,7.70
2007,10,30,17,01,7.70
2007,10,30,17,02,7.70
2007,10,30,17,03,7.70
2007,10,30,17,04,7.70
2007,10,30,17,05,7.60
2007,10,30,17,06,7.60
2007,10,30,17,07,7.60
2007,10,30,17,08,7.60
2007,10,30,17,09,7.60
2007,10,30,17,10,7.60
2007,10,30,17,11,7.50
2007,10,30,17,12,7.50
2007,10,30,17,13,7.50
2007,10,30,17,14,7.40
2007,10,30,17,15,7.40
2007,10,30,17,16,7.40
2007,10,30,17,17,7.30
2007,10,30,17,18,7.30
2007,10,30,17,19,7.30
2007,10,30,17,20,7.20
2007,10,30,17,21,7.20
2007,10,30,17,22,7.20
2007,10,30,17,23,7.20
2007,10,30,17,24,7.20
2007,10,30,17,25,7.20
2007,10,30,17,26,7.20
2007,10,30,17,27,7.10
2007,10,30,17,28,7.10
2007,10,30,17,29,7.10
2007,10,30,17,30,7.00
2007,10,30,17,31,7.00
2007,10,30,17,32,7.00
2007,10,30,17,33,6.90
2007,10,30,17,34,6.90
2007,10,30,17,35,6.90
2007,10,30,17,36,6.90
2007,10,30,17,37,6.80
2007,10,30,17,38,6.80
2007,10,30,17,39,6.80
2007,10,30,17,40,6.80
2007,10,30,17,41,6.80
2007,10,30,17,42,6.80
2007,10,30,17,43,6.70
2007,10,30,17,44,6.70
2007,10,30,17,45,6.70
2007,10,30,17,46,6.70
2007,10,30,17,47,6.70
2007,10,30,17,48,6.70
2007,10,30,17,49,6.70
2007,10,30,17,50,6.70
2007,10,30,17,51,6.60
2007,10,30,17,52,6.60
2007,10,30,17,53,6.60
2007,10,30,17,54,6.60
2007,10,30,17,55,6.60
2007,10,30,17,56,6.50
2007,10,30,17,57,6.50
2007,10,30,17,58,6.50
2007,10,30,17,59,6.50
2007,10,30,18,00,6.40
2007,10,30,18,01,6.40
2007,10,30,18,02,6.40
2007,10,30,18,03,6.40
2007,10,30,18,04,6.30
2007,10,30,18,05,6.30
2007,10,30,18,06,6.30